Preview of NWS' New Version of Forecast
This preview is not operational and should not be used for support decisions.

Regional Weather Roundup (RWR)

Issued by National Weather Service (NWS)

                            
000
ASUS43 KLSX 262057
RWRMO 

WEATHER SUMMARY FOR MISSOURI
NATIONAL WEATHER SERVICE SPRINGFIELD MO
400 PM CDT TUE MAR 26 2019

NOTE: "FAIR" INDICATES FEW OR NO CLOUDS BELOW 12,000 FEET WITH NO
       SIGNIFICANT WEATHER AND/OR OBSTRUCTIONS TO VISIBILITY.
       CURRENT SKY AND/OR WEATHER CONDITIONS ARE NOT AVAILABLE FOR
       CHILLICOTHE AND FARMINGTON.

MOZ001>031-035>038-043-044-053-054-262200-
...NORTHERN AND WESTERN MISSOURI...
  
CITY           SKY/WX    TMP DP  RH WIND       PRES   REMARKS
KANSAS CTY INT MOSUNNY   59  39  47 SW7       30.31F                  
LEE'S SUMMIT   MOSUNNY   60  38  43 CALM      30.32F                  
ST JOSEPH      MOSUNNY   61  41  47 SW9       30.30F                  
CHILLICOTHE      N/A     57  36  45 CALM      30.34F                  
     
$$
MOZ066>068-077>081-088>096-101>105-262200-
...SOUTHWEST MISSOURI...
  
CITY           SKY/WX    TMP DP  RH WIND       PRES   REMARKS
SPRINGFIELD    SUNNY     62  38  40 N8G18     30.31F                  
JOPLIN         SUNNY     63  39  41 N5        30.33F                  
BRANSON        PTSUNNY   61  36  39 NE7       30.32F                  
               
$$
MOZ032>034-039>042-045>050-055>058-069>072-262200-
...CENTRAL MISSOURI...  
  
CITY           SKY/WX    TMP DP  RH WIND       PRES   REMARKS
COLUMBIA       NOT AVBL                                               
JEFFERSON CITY SUNNY     58  20  22 NE7       30.35F                  
ROLLA          SUNNY     56  19  23 N8        30.34F                  
SEDALIA        SUNNY     58  35  42 MISG      30.35F                  
WARRENSBURG    SUNNY     59  36  41 NW3       30.33F                  
               
$$
MOZ051-052-059>065-262200-
...EAST CENTRAL MISSOURI...
  
CITY           SKY/WX    TMP DP  RH WIND       PRES   REMARKS
ST LOUIS INTL  MOSUNNY   53  24  32 N3        30.38F                  
                   
$$
MOZ072>076-082>087-097>100-106>115-262200-
...SOUTH CENTRAL AND SOUTHEAST MISSOURI...
  
CITY           SKY/WX    TMP DP  RH WIND       PRES   REMARKS
CAPE GIRARDEAU NOT AVBL                                               
POPLAR BLUFF   FAIR      56  34  43 N7        30.34S                  
WEST PLAINS    SUNNY     59  36  42 NE12G17   30.32F                  
                                       
$$